Wenatchee, WA

7:02 PM PDT on July 25, 2017 (GMT -0700)
Pangborn Memorial

Weather History for KEAT - August, 2013

Change the Weather History Date:

Saturday, August 10, 2013

  Actual Average Record
Temperature  
Mean Temperature 77 °F 68 °F  
Max Temperature 91 °F 84 °F 104 °F (1971)
Min Temperature 63 °F 52 °F 49 °F (2016)
Degree Days  
Heating Degree Days 0 1  
Month to date heating degree days 10 10  
Since 1 June heating degree days 215 249  
Since 1 July heating degree days 22 62  
Cooling Degree Days 12 4  
Month to date cooling degree days 49 46  
Year to date cooling degree days 226 175  
Since 1 June cooling degree days 222 170  
Growing Degree Days 28 (Base 50)    
Moisture  
Dew Point 56 °F    
Average Humidity 50    
Maximum Humidity 79    
Minimum Humidity 21    
Precipitation  
Precipitation 0.04 in 0.01 in 0.29 in (2013)
Month to date precipitation 0.44 0.11  
Year to date precipitation 8.19 10.06  
Snow  
Snow 0.00 in 0.00 in - ()
Month to date snowfall 0.0 0.0  
Since 1 June snowfall 0.0 0.0  
Since 1 July snowfall 0.0 0.0  
Snow Depth 0.00 in    
Sea Level Pressure  
Sea Level Pressure 29.86 in    
Wind  
Wind Speed 11 mph (WNW)    
Max Wind Speed 20 mph    
Max Gust Speed 26 mph    
Visibility 10 miles    
Events Rain    
T = Trace of Precipitation, MM = Missing Value Source: NWS Daily Summary

Daily Weather History Graph

Daily Weather History Graph

Search for Another Location

Airport or City:

Trip Planner

Search our weather history database for the weather conditions in past years. The results will help you decide how hot, cold, wet, or windy it might be!

Date:

Astronomy

Aug. 10, 2013 Rise Set
Actual Time 5:50 AM PDT 8:20 PM PDT
Civil Twilight 5:16 AM PDT 8:54 PM PDT
Nautical Twilight 4:33 AM PDT 9:37 PM PDT
Astronomical Twilight 3:43 AM PDT 10:27 PM PDT
Moon 10:03 AM PDT (8/10) 9:42 PM PDT (8/10)
Length of Visible Light 15h 38m
Length of Day
14h 29m
Waxing Crescent, 15% of the Moon is Illuminated
Aug 10
Waxing Crescent
Aug 14
First Quarter
Aug 20
Full
Aug 28
Last Quarter
Sep 5
New

Hourly Weather History & Observations

Time (PDT) Temp. Heat Index Dew Point Humidity Pressure Visibility Wind Dir Wind Speed Gust Speed Precip Events Conditions
12:55 AM 75.0 °F - 57.9 °F 55% 29.78 in 10.0 mi NW 18.4 mph 24.2 mph N/A   Clear
1:55 AM 73.0 °F - 59.0 °F 61% 29.80 in 10.0 mi NW 16.1 mph - N/A   Mostly Cloudy
2:55 AM 72.0 °F - 57.9 °F 61% 29.81 in 10.0 mi NNW 13.8 mph 20.7 mph N/A   Partly Cloudy
3:55 AM 72.0 °F - 57.9 °F 61% 29.83 in 10.0 mi West 13.8 mph - N/A   Clear
4:55 AM 71.1 °F - 57.9 °F 63% 29.86 in 10.0 mi NNW 11.5 mph - N/A   Clear
5:55 AM 69.1 °F - 57.0 °F 65% 29.89 in 10.0 mi SW 4.6 mph - N/A   Clear
6:55 AM 66.9 °F - 60.1 °F 79% 29.91 in 10.0 mi NW 5.8 mph - N/A   Clear
7:55 AM 69.1 °F - 60.1 °F 73% 29.92 in 10.0 mi WSW 4.6 mph - N/A   Clear
8:55 AM 73.0 °F - 60.1 °F 64% 29.92 in 10.0 mi West 10.4 mph - N/A   Partly Cloudy
9:55 AM 75.9 °F - 59.0 °F 56% 29.91 in 10.0 mi West 9.2 mph - N/A   Clear
10:55 AM 79.0 °F - 55.9 °F 45% 29.91 in 10.0 mi WSW 4.6 mph - N/A   Clear
11:55 AM 81.0 °F 81.0 °F 57.0 °F 44% 29.90 in 10.0 mi Variable 5.8 mph - N/A   Clear
12:55 PM 82.0 °F 81.7 °F 57.0 °F 42% 29.89 in 10.0 mi West 5.8 mph - N/A   Overcast
1:55 PM 87.1 °F 85.1 °F 54.0 °F 32% 29.88 in 10.0 mi Variable 4.6 mph - N/A   Partly Cloudy
2:55 PM 90.0 °F - 48.9 °F 24% 29.86 in 10.0 mi Variable 3.5 mph - N/A   Clear
3:55 PM 89.1 °F - 45.0 °F 22% 29.83 in 10.0 mi Calm Calm - N/A   Clear
4:55 PM 91.0 °F - 48.0 °F 23% 29.81 in 10.0 mi West 5.8 mph - N/A   Clear
5:55 PM 91.9 °F - 46.0 °F 21% 29.79 in 10.0 mi NW 3.5 mph - N/A   Clear
6:55 PM 88.0 °F 86.7 °F 57.0 °F 35% 29.80 in 10.0 mi East 3.5 mph - N/A   Clear
7:55 PM 87.1 °F 85.3 °F 55.0 °F 33% 29.81 in 10.0 mi Calm Calm - N/A   Clear
8:37 PM 82.4 °F 82.0 °F 57.2 °F 42% 29.86 in 10.0 mi NW 15.0 mph - N/A   Clear
8:55 PM 82.0 °F 81.7 °F 57.0 °F 42% 29.82 in 10.0 mi NW 18.4 mph - N/A   Clear
9:55 PM 80.1 °F 80.1 °F 55.0 °F 42% 29.82 in 10.0 mi WNW 19.6 mph 26.5 mph N/A   Mostly Cloudy
10:55 PM 71.1 °F - 61.0 °F 70% 29.92 in 6.0 mi South 16.1 mph 24.2 mph 0.04 in Rain Rain
11:34 PM 69.8 °F - 57.2 °F 64% 29.94 in 10.0 mi NW 9.2 mph 18.4 mph 0.22 in Rain Light Rain
11:55 PM 69.1 °F - 59.0 °F 70% 29.92 in 10.0 mi West 15.0 mph 25.3 mph 0.22 in Rain Light Rain